Location: Cruquius
(52.3348°N, 4.6319°E)
Time: 09:12:20
(UTC+00:00)

Cosmos 1340 Rocket - Pass Details

Date: 12 May 2021
Orbit: 528 x 559 km, 81.2° (Epoch: 15 June)

Event Time Altitude Azimuth Distance (km) Brightness Sun altitude
Rises 22:17:39 0° 341° (NNW) 2,761 8.2 -17.2°
Reaches altitude 10° 22:19:56 10° 334° (NNW) 1,859 6.8 -17.3°
Maximum altitude 22:23:46 39° 265° (W) 849 3.8 -17.5°
Enters shadow 22:25:37 24° 214° (SSW) 1,164 4.1 -17.6°
